Wetterdaten: Montag, 14.10.2013
Datum Zeit Temperatur Luftfeuchte Luftdruck Regen Wind Richtung Richtung Taupunkt Windchill Windben
14.10.2013 00:00 2,3 C 94 % 1021,8 hPa 0,0 l/m 0,2 km/h (0 Bft) W-SW 247 1,4 C 2,4 C 0,0 km/h (0 Bft)
14.10.2013 00:05 2,3 C 94 % 1021,8 hPa 0,0 l/m 0,0 km/h (0 Bft) W-SW 247 1,4 C 2,3 C 0,0 km/h (0 Bft)
14.10.2013 00:10 2,2 C 94 % 1021,8 hPa 0,0 l/m 0,0 km/h (0 Bft) W 270 1,3 C 2,1 C 0,0 km/h (0 Bft)
14.10.2013 00:15 2,0 C 94 % 1021,8 hPa 0,0 l/m 0,0 km/h (0 Bft) W 270 1,1 C 1,9 C 0,0 km/h (0 Bft)
14.10.2013 00:20 2,3 C 94 % 1021,8 hPa 0,0 l/m 0,0 km/h (0 Bft) W 270 1,4 C 2,0 C 0,0 km/h (0 Bft)
14.10.2013 00:25 2,3 C 94 % 1021,8 hPa 0,0 l/m 0,0 km/h (0 Bft) N 360 1,4 C 1,9 C 0,0 km/h (0 Bft)
14.10.2013 00:30 2,2 C 94 % 1021,7 hPa 0,0 l/m 0,0 km/h (0 Bft) N 360 1,3 C 2,0 C 0,0 km/h (0 Bft)
14.10.2013 00:35 2,4 C 95 % 1021,7 hPa 0,0 l/m 0,2 km/h (0 Bft) N-NO 22 1,7 C 2,0 C 1,6 km/h (1 Bft)
14.10.2013 00:40 2,1 C 94 % 1021,7 hPa 0,0 l/m 0,3 km/h (0 Bft) N 360 1,2 C 2,2 C 0,0 km/h (0 Bft)
14.10.2013 00:45 2,1 C 94 % 1021,7 hPa 0,0 l/m 0,3 km/h (0 Bft) N 360 1,2 C 2,2 C 0,0 km/h (0 Bft)
14.10.2013 00:50 2,3 C 95 % 1021,6 hPa 0,0 l/m 0,0 km/h (0 Bft) NO 45 1,6 C 2,1 C 0,0 km/h (0 Bft)
14.10.2013 00:55 2,2 C 94 % 1021,6 hPa 0,0 l/m 0,0 km/h (0 Bft) W 270 1,3 C 2,1 C 1,6 km/h (1 Bft)
14.10.2013 01:00 2,6 C 95 % 1021,6 hPa 0,0 l/m 0,5 km/h (0 Bft) NO 45 1,9 C 2,1 C 6,3 km/h (2 Bft)
14.10.2013 01:05 3,1 C 94 % 1021,6 hPa 0,0 l/m 3,2 km/h (1 Bft) O-NO 67 2,2 C 2,1 C 6,6 km/h (2 Bft)
14.10.2013 01:10 3,0 C 94 % 1021,4 hPa 0,0 l/m 3,2 km/h (1 Bft) W-SW 247 2,1 C 2,7 C 0,0 km/h (0 Bft)
14.10.2013 01:15 3,1 C 94 % 1021,4 hPa 0,0 l/m 1,4 km/h (1 Bft) N-NO 22 2,2 C 2,9 C 0,0 km/h (0 Bft)
14.10.2013 01:20 2,9 C 95 % 1021,4 hPa 0,0 l/m 0,3 km/h (0 Bft) N 360 2,2 C 2,9 C 0,0 km/h (0 Bft)
14.10.2013 01:25 3,1 C 95 % 1021,4 hPa 0,0 l/m 0,3 km/h (0 Bft) NO 45 2,4 C 2,9 C 0,0 km/h (0 Bft)
14.10.2013 01:30 3,0 C 95 % 1021,2 hPa 0,0 l/m 0,3 km/h (0 Bft) N-NW 337 2,3 C 3,0 C 0,0 km/h (0 Bft)
14.10.2013 01:35 3,1 C 95 % 1021,2 hPa 0,0 l/m 0,3 km/h (0 Bft) N 360 2,4 C 2,8 C 0,0 km/h (0 Bft)
14.10.2013 01:40 2,8 C 95 % 1021,2 hPa 0,0 l/m 0,0 km/h (0 Bft) N 360 2,1 C 2,8 C 0,0 km/h (0 Bft)
14.10.2013 01:45 2,6 C 95 % 1021,2 hPa 0,0 l/m 0,2 km/h (0 Bft) N-NW 337 1,9 C 2,8 C 1,6 km/h (1 Bft)
14.10.2013 01:50 2,4 C 95 % 1021,4 hPa 0,0 l/m 0,2 km/h (0 Bft) N-NW 337 1,7 C 2,8 C 0,0 km/h (0 Bft)
14.10.2013 01:55 2,3 C 95 % 1021,4 hPa 0,0 l/m 0,2 km/h (0 Bft) N-NO 22 1,6 C 2,6 C 0,0 km/h (0 Bft)
14.10.2013 02:00 2,4 C 95 % 1021,4 hPa 0,0 l/m 0,3 km/h (0 Bft) N-NO 22 1,7 C 2,4 C 2,3 km/h (1 Bft)
14.10.2013 02:05 2,2 C 95 % 1021,4 hPa 0,0 l/m 0,3 km/h (0 Bft) S-SW 202 1,5 C 2,2 C 0,0 km/h (0 Bft)
14.10.2013 02:10 1,9 C 95 % 1021,4 hPa 0,0 l/m 0,2 km/h (0 Bft) S-SO 157 1,2 C 1,9 C 0,0 km/h (0 Bft)
14.10.2013 02:15 1,9 C 95 % 1021,4 hPa 0,0 l/m 0,0 km/h (0 Bft) S-SO 157 1,2 C 1,8 C 0,0 km/h (0 Bft)
14.10.2013 02:20 2,1 C 95 % 1021,4 hPa 0,0 l/m 0,5 km/h (0 Bft) N-NO 22 1,4 C 1,7 C 2,4 km/h (1 Bft)
14.10.2013 02:25 2,2 C 95 % 1021,4 hPa 0,0 l/m 0,8 km/h (0 Bft) NO 45 1,5 C 1,8 C 0,0 km/h (0 Bft)
14.10.2013 02:30 2,2 C 95 % 1021,4 hPa 0,0 l/m 0,5 km/h (0 Bft) NO 45 1,5 C 1,9 C 0,0 km/h (0 Bft)
14.10.2013 02:35 1,9 C 96 % 1021,4 hPa 0,0 l/m 0,0 km/h (0 Bft) NO 45 1,3 C 1,9 C 0,0 km/h (0 Bft)
14.10.2013 02:40 2,1 C 95 % 1021,4 hPa 0,0 l/m 0,0 km/h (0 Bft) NO 45 1,4 C 1,9 C 0,0 km/h (0 Bft)
14.10.2013 02:45 1,9 C 96 % 1021,4 hPa 0,0 l/m 0,2 km/h (0 Bft) N-NW 337 1,3 C 1,9 C 0,0 km/h (0 Bft)
14.10.2013 02:50 2,3 C 95 % 1021,2 hPa 0,0 l/m 0,3 km/h (0 Bft) N-NO 22 1,6 C 1,9 C 0,0 km/h (0 Bft)
14.10.2013 02:55 1,9 C 96 % 1021,2 hPa 0,0 l/m 0,3 km/h (0 Bft) N-NO 22 1,3 C 1,9 C 0,0 km/h (0 Bft)
14.10.2013 03:00 1,7 C 95 % 1021,2 hPa 0,0 l/m 0,0 km/h (0 Bft) N-NO 22 1,0 C 1,9 C 0,0 km/h (0 Bft)
14.10.2013 03:05 1,7 C 96 % 1021,2 hPa 0,0 l/m 0,0 km/h (0 Bft) NO 45 1,1 C 1,8 C 0,0 km/h (0 Bft)
14.10.2013 03:10 1,8 C 96 % 1021,2 hPa 0,0 l/m 0,0 km/h (0 Bft) N 360 1,2 C 1,8 C 0,0 km/h (0 Bft)
14.10.2013 03:15 1,8 C 96 % 1021,2 hPa 0,0 l/m 0,0 km/h (0 Bft) NO 45 1,2 C 1,8 C 0,0 km/h (0 Bft)
14.10.2013 03:20 1,8 C 96 % 1021,2 hPa 0,0 l/m 0,0 km/h (0 Bft) N-NO 22 1,2 C 1,7 C 0,0 km/h (0 Bft)
14.10.2013 03:25 1,8 C 96 % 1021,2 hPa 0,0 l/m 0,0 km/h (0 Bft) N-NO 22 1,2 C 1,6 C 0,0 km/h (0 Bft)
14.10.2013 03:30 2,1 C 95 % 1021,2 hPa 0,0 l/m 0,0 km/h (0 Bft) NO 45 1,4 C 1,6 C 0,0 km/h (0 Bft)
14.10.2013 03:35 2,0 C 95 % 1021,2 hPa 0,0 l/m 0,0 km/h (0 Bft) N-NO 22 1,3 C 1,7 C 0,0 km/h (0 Bft)
14.10.2013 03:40 1,8 C 96 % 1021,2 hPa 0,0 l/m 0,0 km/h (0 Bft) N-NO 22 1,2 C 1,6 C 1,6 km/h (1 Bft)
14.10.2013 03:45 1,8 C 96 % 1021,2 hPa 0,0 l/m 0,0 km/h (0 Bft) NW 315 1,2 C 1,7 C 0,0 km/h (0 Bft)
14.10.2013 03:50 2,0 C 95 % 1021,0 hPa 0,0 l/m 0,0 km/h (0 Bft) W-NW 292 1,3 C 2,0 C 0,0 km/h (0 Bft)
14.10.2013 03:55 2,6 C 95 % 1021,0 hPa 0,0 l/m 0,0 km/h (0 Bft) NW 315 1,9 C 2,1 C 1,6 km/h (1 Bft)
14.10.2013 04:00 2,5 C 96 % 1021,0 hPa 0,0 l/m 0,0 km/h (0 Bft) NW 315 1,9 C 2,3 C 0,0 km/h (0 Bft)
14.10.2013 04:05 2,3 C 96 % 1021,0 hPa 0,0 l/m 0,2 km/h (0 Bft) W-NW 292 1,7 C 2,3 C 0,0 km/h (0 Bft)
14.10.2013 04:10 2,0 C 96 % 1020,8 hPa 0,0 l/m 0,2 km/h (0 Bft) W-NW 292 1,4 C 2,1 C 0,0 km/h (0 Bft)
14.10.2013 04:15 1,8 C 96 % 1020,8 hPa 0,0 l/m 0,0 km/h (0 Bft) W-NW 292 1,2 C 2,0 C 0,0 km/h (0 Bft)
14.10.2013 04:20 1,8 C 96 % 1020,8 hPa 0,0 l/m 0,0 km/h (0 Bft) N-NO 22 1,2 C 1,8 C 0,0 km/h (0 Bft)
14.10.2013 04:23 1,9 C 96 % 1020,8 hPa 0,0 l/m 0,2 km/h (0 Bft) N-NO 22 1,3 C 1,7 C 0,0 km/h (0 Bft)
14.10.2013 04:25 1,9 C 96 % 1020,8 hPa 0,0 l/m 0,2 km/h (0 Bft) N-NO 22 1,3 C 1,7 C 0,0 km/h (0 Bft)
14.10.2013 04:30 1,9 C 96 % 1020,6 hPa 0,0 l/m 0,2 km/h (0 Bft) N-NO 22 1,3 C 1,6 C 0,0 km/h (0 Bft)
14.10.2013 04:35 1,6 C 96 % 1020,6 hPa 0,0 l/m 0,0 km/h (0 Bft) N-NO 22 1,0 C 1,5 C 0,0 km/h (0 Bft)
14.10.2013 04:40 1,5 C 96 % 1020,6 hPa 0,0 l/m 0,0 km/h (0 Bft) N 360 0,9 C 1,4 C 0,0 km/h (0 Bft)
14.10.2013 04:45 1,6 C 96 % 1020,6 hPa 0,0 l/m 0,0 km/h (0 Bft) N-NO 22 1,0 C 1,4 C 0,0 km/h (0 Bft)
14.10.2013 04:50 1,5 C 96 % 1020,2 hPa 0,0 l/m 0,0 km/h (0 Bft) N 360 0,9 C 1,3 C 0,0 km/h (0 Bft)
14.10.2013 04:55 1,4 C 96 % 1020,2 hPa 0,0 l/m 0,0 km/h (0 Bft) N 360 0,8 C 1,2 C 0,0 km/h (0 Bft)
14.10.2013 05:00 1,2 C 96 % 1020,2 hPa 0,0 l/m 0,0 km/h (0 Bft) N 360 0,6 C 1,2 C 0,0 km/h (0 Bft)
14.10.2013 05:05 1,2 C 96 % 1020,2 hPa 0,0 l/m 0,0 km/h (0 Bft) N 360 0,6 C 1,1 C 0,0 km/h (0 Bft)
14.10.2013 05:10 1,1 C 96 % 1020,2 hPa 0,0 l/m 0,0 km/h (0 Bft) N 360 0,5 C 0,8 C 0,0 km/h (0 Bft)
14.10.2013 05:15 1,2 C 96 % 1020,2 hPa 0,0 l/m 0,0 km/h (0 Bft) N-NO 22 0,6 C 0,8 C 0,0 km/h (0 Bft)
14.10.2013 05:20 1,2 C 96 % 1020,2 hPa 0,0 l/m 0,0 km/h (0 Bft) N-NO 22 0,6 C 0,9 C 0,0 km/h (0 Bft)
14.10.2013 05:25 1,5 C 96 % 1020,2 hPa 0,0 l/m 0,2 km/h (0 Bft) N-NO 22 0,9 C 0,9 C 0,0 km/h (0 Bft)
14.10.2013 05:30 1,4 C 96 % 1020,4 hPa 0,0 l/m 0,2 km/h (0 Bft) N 360 0,8 C 1,1 C 0,0 km/h (0 Bft)
14.10.2013 05:35 1,3 C 96 % 1020,4 hPa 0,0 l/m 0,0 km/h (0 Bft) N-NW 337 0,7 C 1,0 C 0,0 km/h (0 Bft)
14.10.2013 05:40 1,2 C 96 % 1020,4 hPa 0,0 l/m 0,0 km/h (0 Bft) N-NW 337 0,6 C 0,9 C 0,0 km/h (0 Bft)
14.10.2013 05:45 1,2 C 96 % 1020,4 hPa 0,0 l/m 0,0 km/h (0 Bft) N-NO 22 0,6 C 0,9 C 0,0 km/h (0 Bft)
14.10.2013 05:50 1,2 C 96 % 1020,3 hPa 0,0 l/m 0,0 km/h (0 Bft) N-NO 22 0,6 C 0,9 C 0,0 km/h (0 Bft)
14.10.2013 05:55 1,3 C 96 % 1020,3 hPa 0,0 l/m 0,0 km/h (0 Bft) N-NO 22 0,7 C 0,9 C 0,0 km/h (0 Bft)
14.10.2013 06:00 1,2 C 96 % 1020,3 hPa 0,0 l/m 0,0 km/h (0 Bft) N-NO 22 0,6 C 0,7 C 0,0 km/h (0 Bft)
14.10.2013 06:05 1,2 C 96 % 1020,3 hPa 0,0 l/m 0,2 km/h (0 Bft) N 360 0,6 C 0,8 C 1,8 km/h (1 Bft)
14.10.2013 06:10 1,2 C 96 % 1020,4 hPa 0,0 l/m 0,2 km/h (0 Bft) N-NO 22 0,6 C 0,9 C 0,0 km/h (0 Bft)
14.10.2013 06:15 1,0 C 96 % 1020,4 hPa 0,0 l/m 0,2 km/h (0 Bft) N-NO 22 0,4 C 0,9 C 1,8 km/h (1 Bft)
14.10.2013 06:20 1,1 C 96 % 1020,4 hPa 0,0 l/m 0,2 km/h (0 Bft) N-NO 22 0,5 C 0,8 C 0,0 km/h (0 Bft)
14.10.2013 06:25 0,9 C 96 % 1020,4 hPa 0,0 l/m 0,2 km/h (0 Bft) N-NO 22 0,3 C 0,8 C 0,0 km/h (0 Bft)
14.10.2013 06:30 1,0 C 96 % 1020,4 hPa 0,0 l/m 0,0 km/h (0 Bft) W-NW 292 0,4 C 0,8 C 0,0 km/h (0 Bft)
14.10.2013 06:35 0,9 C 96 % 1020,4 hPa 0,0 l/m 0,0 km/h (0 Bft) N 360 0,3 C 0,7 C 0,0 km/h (0 Bft)
14.10.2013 06:40 0,9 C 96 % 1020,4 hPa 0,0 l/m 0,0 km/h (0 Bft) N-NO 22 0,3 C 0,6 C 0,0 km/h (0 Bft)
14.10.2013 06:45 0,7 C 96 % 1020,4 hPa 0,0 l/m 0,0 km/h (0 Bft) W-NW 292 0,1 C 0,6 C 0,0 km/h (0 Bft)
14.10.2013 06:50 0,9 C 96 % 1020,4 hPa 0,0 l/m 0,2 km/h (0 Bft) W-NW 292 0,3 C 0,6 C 0,0 km/h (0 Bft)
14.10.2013 06:55 0,8 C 96 % 1020,4 hPa 0,0 l/m 0,2 km/h (0 Bft) N-NW 337 0,2 C 0,5 C 0,0 km/h (0 Bft)
14.10.2013 07:00 0,7 C 96 % 1020,4 hPa 0,0 l/m 0,0 km/h (0 Bft) W-NW 292 0,1 C 0,4 C 0,0 km/h (0 Bft)
14.10.2013 07:05 0,9 C 96 % 1020,4 hPa 0,0 l/m 0,2 km/h (0 Bft) N-NO 22 0,3 C 0,4 C 0,0 km/h (0 Bft)
14.10.2013 07:10 0,8 C 96 % 1020,2 hPa 0,0 l/m 0,2 km/h (0 Bft) N-NO 22 0,2 C 0,5 C 0,0 km/h (0 Bft)
14.10.2013 07:15 0,7 C 96 % 1020,2 hPa 0,0 l/m 0,0 km/h (0 Bft) N-NO 22 0,1 C 0,5 C 0,0 km/h (0 Bft)
14.10.2013 07:20 0,9 C 96 % 1020,2 hPa 0,0 l/m 0,0 km/h (0 Bft) N-NO 22 0,3 C 0,4 C 0,0 km/h (0 Bft)
14.10.2013 07:25 1,1 C 96 % 1020,2 hPa 0,0 l/m 0,0 km/h (0 Bft) N-NO 22 0,5 C 0,4 C 0,0 km/h (0 Bft)
14.10.2013 07:30 0,8 C 96 % 1020,1 hPa 0,0 l/m 0,0 km/h (0 Bft) N-NO 22 0,2 C 0,4 C 0,0 km/h (0 Bft)
14.10.2013 07:35 0,8 C 96 % 1020,1 hPa 0,0 l/m 0,0 km/h (0 Bft) N 360 0,2 C 0,4 C 0,0 km/h (0 Bft)
14.10.2013 07:40 0,5 C 96 % 1020,1 hPa 0,0 l/m 0,0 km/h (0 Bft) N-NO 22 -0,1 C 0,3 C 0,0 km/h (0 Bft)
14.10.2013 07:45 0,5 C 96 % 1020,1 hPa 0,0 l/m 0,0 km/h (0 Bft) N-NO 22 -0,1 C 0,1 C 0,0 km/h (0 Bft)
14.10.2013 07:50 0,8 C 96 % 1020,0 hPa 0,0 l/m 0,0 km/h (0 Bft) N-NO 22 0,2 C 0,1 C 0,0 km/h (0 Bft)
14.10.2013 07:55 0,7 C 96 % 1020,0 hPa 0,0 l/m 0,0 km/h (0 Bft) N-NO 22 0,1 C 0,1 C 0,0 km/h (0 Bft)
14.10.2013 08:00 0,7 C 96 % 1020,0 hPa 0,0 l/m 0,0 km/h (0 Bft) N-NO 22 0,1 C 0,1 C 0,0 km/h (0 Bft)
14.10.2013 08:05 0,5 C 96 % 1020,0 hPa 0,0 l/m 0,0 km/h (0 Bft) N-NW 337 -0,1 C 0,4 C 0,0 km/h (0 Bft)
14.10.2013 08:10 0,7 C 96 % 1019,9 hPa 0,0 l/m 0,0 km/h (0 Bft) N-NW 337 0,1 C 0,4 C 0,0 km/h (0 Bft)
14.10.2013 08:15 0,7 C 96 % 1019,9 hPa 0,0 l/m 0,0 km/h (0 Bft) N-NW 337 0,1 C 0,4 C 0,0 km/h (0 Bft)
14.10.2013 08:20 0,8 C 96 % 1019,9 hPa 0,0 l/m 0,0 km/h (0 Bft) N-NW 337 0,2 C 0,4 C 0,0 km/h (0 Bft)
14.10.2013 08:25 0,8 C 96 % 1019,9 hPa 0,0 l/m 0,0 km/h (0 Bft) N-NW 337 0,2 C 0,4 C 0,0 km/h (0 Bft)
14.10.2013 08:30 0,9 C 96 % 1020,1 hPa 0,0 l/m 0,0 km/h (0 Bft) N-NW 337 0,3 C 0,4 C 0,0 km/h (0 Bft)
14.10.2013 08:35 1,2 C 96 % 1020,1 hPa 0,0 l/m 0,0 km/h (0 Bft) N-NW 337 0,6 C 0,4 C 0,0 km/h (0 Bft)
14.10.2013 08:40 1,2 C 96 % 1020,1 hPa 0,0 l/m 0,0 km/h (0 Bft) N-NW 337 0,6 C 0,4 C 0,0 km/h (0 Bft)
14.10.2013 08:45 1,6 C 96 % 1020,1 hPa 0,0 l/m 0,0 km/h (0 Bft) N-NW 337 1,0 C 0,4 C 0,0 km/h (0 Bft)
14.10.2013 08:50 2,2 C 96 % 1020,2 hPa 0,0 l/m 0,0 km/h (0 Bft) N-NW 337 1,6 C 0,4 C 0,0 km/h (0 Bft)
14.10.2013 08:55 2,4 C 96 % 1020,2 hPa 0,0 l/m 0,0 km/h (0 Bft) N-NW 337 1,8 C 0,4 C 0,0 km/h (0 Bft)
14.10.2013 09:00 3,0 C 96 % 1020,2 hPa 0,0 l/m 0,0 km/h (0 Bft) N-NW 337 2,4 C 0,4 C 0,0 km/h (0 Bft)
14.10.2013 09:05 3,2 C 96 % 1020,2 hPa 0,0 l/m 0,0 km/h (0 Bft) N-NW 337 2,6 C 0,4 C 0,0 km/h (0 Bft)
14.10.2013 09:10 3,4 C 96 % 1020,5 hPa 0,0 l/m 0,0 km/h (0 Bft) N-NW 337 2,8 C 0,4 C 0,0 km/h (0 Bft)
14.10.2013 09:15 3,5 C 96 % 1020,5 hPa 0,0 l/m 0,0 km/h (0 Bft) N-NW 337 2,9 C 0,4 C 0,0 km/h (0 Bft)
14.10.2013 09:20 3,7 C 96 % 1020,5 hPa 0,0 l/m 0,0 km/h (0 Bft) N-NW 337 3,1 C 0,4 C 0,0 km/h (0 Bft)
14.10.2013 09:25 3,8 C 96 % 1020,5 hPa 0,0 l/m 0,0 km/h (0 Bft) N-NW 337 3,2 C 0,4 C 0,0 km/h (0 Bft)
14.10.2013 09:30 4,1 C 95 % 1020,4 hPa 0,0 l/m 0,0 km/h (0 Bft) N-NW 337 3,4 C 0,4 C 0,0 km/h (0 Bft)
14.10.2013 09:35 4,2 C 95 % 1020,4 hPa 0,0 l/m 0,0 km/h (0 Bft) N-NW 337 3,5 C 0,4 C 0,0 km/h (0 Bft)
14.10.2013 09:40 4,8 C 95 % 1020,4 hPa 0,0 l/m 0,0 km/h (0 Bft) N-NW 337 4,1 C 0,4 C 0,0 km/h (0 Bft)
14.10.2013 09:45 4,9 C 95 % 1020,4 hPa 0,0 l/m 0,0 km/h (0 Bft) N-NW 337 4,2 C 0,4 C 0,0 km/h (0 Bft)
14.10.2013 09:50 5,3 C 95 % 1020,7 hPa 0,0 l/m 0,0 km/h (0 Bft) N-NW 337 4,6 C 0,4 C 0,0 km/h (0 Bft)
14.10.2013 09:55 5,4 C 95 % 1020,7 hPa 0,0 l/m 0,0 km/h (0 Bft) N-NW 337 4,7 C 0,4 C 0,0 km/h (0 Bft)
14.10.2013 10:00 5,6 C 95 % 1020,7 hPa 0,0 l/m 0,0 km/h (0 Bft) N-NW 337 4,9 C 0,4 C 0,0 km/h (0 Bft)
14.10.2013 10:05 5,7 C 95 % 1020,7 hPa 0,0 l/m 0,0 km/h (0 Bft) N-NW 337 5,0 C 0,4 C 0,0 km/h (0 Bft)
14.10.2013 10:10 6,2 C 94 % 1020,9 hPa 0,0 l/m 0,0 km/h (0 Bft) N-NW 337 5,3 C 0,4 C 0,0 km/h (0 Bft)
14.10.2013 10:15 6,3 C 94 % 1020,9 hPa 0,0 l/m 0,0 km/h (0 Bft) N-NW 337 5,4 C 0,4 C 0,0 km/h (0 Bft)
14.10.2013 10:20 6,7 C 94 % 1020,9 hPa 0,0 l/m 0,0 km/h (0 Bft) N-NW 337 5,8 C 0,4 C 0,0 km/h (0 Bft)
14.10.2013 10:23 6,8 C 94 % 1020,9 hPa 0,0 l/m 0,0 km/h (0 Bft) N-NW 337 5,9 C 0,4 C 0,0 km/h (0 Bft)
14.10.2013 10:25 6,8 C 94 % 1020,9 hPa 0,0 l/m 0,0 km/h (0 Bft) N-NW 337 5,9 C 0,4 C 0,0 km/h (0 Bft)
14.10.2013 10:30 7,1 C 94 % 1020,8 hPa 0,0 l/m 0,0 km/h (0 Bft) N-NW 337 6,2 C 0,4 C 0,0 km/h (0 Bft)
14.10.2013 10:35 7,3 C 94 % 1020,8 hPa 0,0 l/m 0,0 km/h (0 Bft) N-NW 337 6,4 C 0,4 C 0,0 km/h (0 Bft)
14.10.2013 10:40 7,6 C 94 % 1020,8 hPa 0,0 l/m 0,0 km/h (0 Bft) N-NW 337 6,7 C 0,4 C 0,0 km/h (0 Bft)
14.10.2013 10:45 7,8 C 94 % 1020,8 hPa 0,0 l/m 0,0 km/h (0 Bft) N-NW 337 6,9 C 0,4 C 0,0 km/h (0 Bft)
14.10.2013 10:50 8,0 C 93 % 1020,9 hPa 0,0 l/m 0,0 km/h (0 Bft) N-NW 337 6,9 C 0,4 C 0,0 km/h (0 Bft)
14.10.2013 10:55 8,1 C 93 % 1020,9 hPa 0,0 l/m 0,0 km/h (0 Bft) N-NW 337 7,0 C 0,4 C 0,0 km/h (0 Bft)
14.10.2013 11:00 8,3 C 93 % 1020,9 hPa 0,0 l/m 0,0 km/h (0 Bft) N-NW 337 7,2 C 0,4 C 0,0 km/h (0 Bft)
14.10.2013 11:05 8,4 C 93 % 1020,9 hPa 0,0 l/m 0,0 km/h (0 Bft) N-NW 337 7,3 C 0,4 C 0,0 km/h (0 Bft)
14.10.2013 11:10 8,9 C 93 % 1021,6 hPa 0,0 l/m 0,0 km/h (0 Bft) N-NW 337 7,8 C 0,4 C 0,0 km/h (0 Bft)
14.10.2013 11:15 9,3 C 92 % 1021,6 hPa 0,0 l/m 0,0 km/h (0 Bft) N-NW 337 8,1 C 0,4 C 0,0 km/h (0 Bft)
14.10.2013 11:20 10,1 C 91 % 1021,6 hPa 0,0 l/m 0,0 km/h (0 Bft) N-NW 337 8,7 C 0,4 C 0,0 km/h (0 Bft)
14.10.2013 11:25 10,3 C 89 % 1021,6 hPa 0,0 l/m 0,0 km/h (0 Bft) N-NW 337 8,6 C 0,4 C 0,0 km/h (0 Bft)
14.10.2013 11:30 10,5 C 88 % 1021,6 hPa 0,0 l/m 0,0 km/h (0 Bft) N-NW 337 8,6 C 0,4 C 0,0 km/h (0 Bft)
14.10.2013 11:35 10,7 C 87 % 1021,6 hPa 0,0 l/m 0,0 km/h (0 Bft) N-NW 337 8,6 C 0,4 C 0,0 km/h (0 Bft)
14.10.2013 11:40 10,7 C 86 % 1021,6 hPa 0,0 l/m 0,0 km/h (0 Bft) N-NW 337 8,5 C 0,4 C 0,0 km/h (0 Bft)
14.10.2013 11:45 10,9 C 86 % 1021,6 hPa 0,0 l/m 0,0 km/h (0 Bft) N-NW 337 8,7 C 0,4 C 0,0 km/h (0 Bft)
14.10.2013 11:50 11,3 C 85 % 1021,4 hPa 0,0 l/m 0,2 km/h (0 Bft) S 180 8,9 C 14,9 C 0,0 km/h (0 Bft)
14.10.2013 11:55 11,5 C 81 % 1021,4 hPa 0,0 l/m 1,1 km/h (1 Bft) S-SO 157 8,4 C 14,9 C 0,0 km/h (0 Bft)
14.10.2013 12:00 11,6 C 80 % 1021,4 hPa 0,0 l/m 2,6 km/h (1 Bft) S 180 8,3 C 14,8 C 5,0 km/h (1 Bft)
14.10.2013 12:05 11,5 C 78 % 1021,4 hPa 0,0 l/m 3,1 km/h (1 Bft) S-SW 202 7,8 C 14,6 C 2,7 km/h (1 Bft)
14.10.2013 12:10 11,6 C 77 % 1021,6 hPa 0,0 l/m 3,5 km/h (1 Bft) S-SW 202 7,7 C 14,5 C 1,8 km/h (1 Bft)
14.10.2013 12:15 12,0 C 81 % 1021,6 hPa 0,0 l/m 1,3 km/h (1 Bft) W 270 8,8 C 14,8 C 2,3 km/h (1 Bft)
14.10.2013 12:20 12,1 C 80 % 1021,6 hPa 0,0 l/m 1,6 km/h (1 Bft) S-SO 157 8,8 C 14,8 C 2,4 km/h (1 Bft)
14.10.2013 12:25 12,1 C 79 % 1021,6 hPa 0,0 l/m 1,9 km/h (1 Bft) SW 225 8,6 C 14,9 C 1,9 km/h (1 Bft)
14.10.2013 12:30 12,2 C 79 % 1021,4 hPa 0,0 l/m 2,3 km/h (1 Bft) S 180 8,7 C 14,9 C 6,1 km/h (2 Bft)
14.10.2013 12:35 12,3 C 79 % 1021,4 hPa 0,0 l/m 2,6 km/h (1 Bft) S 180 8,8 C 14,8 C 4,3 km/h (1 Bft)
14.10.2013 12:40 12,5 C 79 % 1021,4 hPa 0,0 l/m 2,9 km/h (1 Bft) S 180 9,0 C 14,8 C 3,7 km/h (1 Bft)
14.10.2013 12:45 12,4 C 76 % 1021,4 hPa 0,0 l/m 2,4 km/h (1 Bft) S-SW 202 8,3 C 14,8 C 4,5 km/h (1 Bft)
14.10.2013 12:50 12,5 C 75 % 1021,3 hPa 0,0 l/m 3,5 km/h (1 Bft) W-SW 247 8,2 C 14,7 C 6,0 km/h (2 Bft)
14.10.2013 12:55 12,6 C 74 % 1021,3 hPa 0,0 l/m 4,8 km/h (1 Bft) S-SO 157 8,1 C 14,6 C 6,4 km/h (2 Bft)
14.10.2013 13:00 12,8 C 72 % 1021,3 hPa 0,0 l/m 4,8 km/h (1 Bft) S-SO 157 7,9 C 14,6 C 6,4 km/h (2 Bft)
14.10.2013 13:05 12,8 C 70 % 1021,3 hPa 0,0 l/m 5,3 km/h (1 Bft) S 180 7,5 C 14,8 C 7,1 km/h (2 Bft)
14.10.2013 13:10 12,8 C 72 % 1021,2 hPa 0,0 l/m 5,3 km/h (1 Bft) S 180 7,9 C 14,8 C 8,2 km/h (2 Bft)
14.10.2013 13:15 13,0 C 72 % 1021,2 hPa 0,0 l/m 5,3 km/h (1 Bft) S 180 8,1 C 14,8 C 7,1 km/h (2 Bft)
14.10.2013 13:20 13,2 C 73 % 1021,2 hPa 0,0 l/m 5,3 km/h (1 Bft) S 180 8,5 C 14,8 C 7,1 km/h (2 Bft)
14.10.2013 13:25 13,5 C 73 % 1021,2 hPa 0,0 l/m 0,0 km/h (0 Bft) S 180 8,8 C 14,8 C 0,0 km/h (0 Bft)
14.10.2013 13:30 13,7 C 68 % 1021,1 hPa 0,0 l/m 0,0 km/h (0 Bft) S 180 7,9 C 14,8 C 0,0 km/h (0 Bft)
14.10.2013 13:35 13,7 C 69 % 1021,1 hPa 0,0 l/m 0,0 km/h (0 Bft) S 180 8,1 C 14,8 C 0,0 km/h (0 Bft)
14.10.2013 13:40 13,9 C 70 % 1021,1 hPa 0,0 l/m 0,0 km/h (0 Bft) S 180 8,5 C 14,8 C 0,0 km/h (0 Bft)
14.10.2013 13:45 14,1 C 70 % 1021,1 hPa 0,0 l/m 0,0 km/h (0 Bft) S 180 8,7 C 14,8 C 0,0 km/h (0 Bft)
14.10.2013 13:50 14,1 C 62 % 1021,3 hPa 0,0 l/m 0,0 km/h (0 Bft) S 180 6,9 C 14,8 C 0,0 km/h (0 Bft)
14.10.2013 13:55 14,1 C 60 % 1021,3 hPa 0,0 l/m 0,0 km/h (0 Bft) S 180 6,5 C 14,8 C 0,0 km/h (0 Bft)
14.10.2013 14:00 14,5 C 61 % 1021,3 hPa 0,0 l/m 0,0 km/h (0 Bft) S 180 7,1 C 14,8 C 0,0 km/h (0 Bft)
14.10.2013 14:05 14,3 C 59 % 1021,3 hPa 0,0 l/m 0,0 km/h (0 Bft) S 180 6,4 C 14,8 C 0,0 km/h (0 Bft)
14.10.2013 14:10 14,3 C 56 % 1021,4 hPa 0,0 l/m 0,0 km/h (0 Bft) S 180 5,6 C 14,8 C 0,0 km/h (0 Bft)
14.10.2013 14:15 14,3 C 58 % 1021,4 hPa 0,0 l/m 0,0 km/h (0 Bft) S 180 6,2 C 14,8 C 0,0 km/h (0 Bft)
14.10.2013 14:20 14,0 C 60 % 1021,4 hPa 0,0 l/m 0,0 km/h (0 Bft) S 180 6,4 C 14,8 C 0,0 km/h (0 Bft)
14.10.2013 14:25 13,9 C 59 % 1021,4 hPa 0,0 l/m 0,0 km/h (0 Bft) S 180 6,0 C 14,8 C 0,0 km/h (0 Bft)
14.10.2013 14:30 13,8 C 60 % 1020,9 hPa 0,0 l/m 0,0 km/h (0 Bft) S 180 6,2 C 14,8 C 0,0 km/h (0 Bft)
14.10.2013 14:35 13,4 C 59 % 1020,9 hPa 0,0 l/m 0,0 km/h (0 Bft) S 180 5,6 C 14,8 C 0,0 km/h (0 Bft)
14.10.2013 14:40 13,3 C 61 % 1020,9 hPa 0,0 l/m 0,0 km/h (0 Bft) S 180 5,9 C 14,8 C 0,0 km/h (0 Bft)
14.10.2013 14:45 13,1 C 60 % 1020,9 hPa 0,0 l/m 0,0 km/h (0 Bft) S 180 5,5 C 14,8 C 0,0 km/h (0 Bft)
14.10.2013 14:50 12,8 C 62 % 1020,4 hPa 0,0 l/m 0,0 km/h (0 Bft) S 180 5,7 C 14,8 C 0,0 km/h (0 Bft)
14.10.2013 14:55 12,8 C 61 % 1020,4 hPa 0,0 l/m 0,0 km/h (0 Bft) S 180 5,5 C 14,8 C 0,0 km/h (0 Bft)
14.10.2013 15:00 12,7 C 61 % 1020,4 hPa 0,0 l/m 0,0 km/h (0 Bft) S 180 5,4 C 14,8 C 0,0 km/h (0 Bft)
14.10.2013 15:05 12,5 C 64 % 1020,4 hPa 0,0 l/m 0,0 km/h (0 Bft) S 180 5,9 C 14,8 C 0,0 km/h (0 Bft)
14.10.2013 15:10 12,3 C 65 % 1020,2 hPa 0,0 l/m 0,0 km/h (0 Bft) S 180 5,9 C 14,8 C 0,0 km/h (0 Bft)
14.10.2013 15:15 12,1 C 67 % 1020,2 hPa 0,0 l/m 0,0 km/h (0 Bft) S 180 6,2 C 14,8 C 0,0 km/h (0 Bft)
14.10.2013 15:20 12,2 C 67 % 1020,2 hPa 0,0 l/m 0,0 km/h (0 Bft) S 180 6,3 C 14,8 C 0,0 km/h (0 Bft)
14.10.2013 15:25 12,4 C 65 % 1020,2 hPa 0,0 l/m 0,0 km/h (0 Bft) S 180 6,0 C 14,8 C 0,0 km/h (0 Bft)
14.10.2013 15:30 12,5 C 66 % 1020,1 hPa 0,0 l/m 0,0 km/h (0 Bft) S 180 6,3 C 14,8 C 0,0 km/h (0 Bft)
14.10.2013 15:35 12,4 C 65 % 1020,1 hPa 0,0 l/m 0,0 km/h (0 Bft) S 180 6,0 C 14,8 C 0,0 km/h (0 Bft)
14.10.2013 15:40 12,2 C 65 % 1020,1 hPa 0,0 l/m 0,0 km/h (0 Bft) S 180 5,8 C 14,8 C 0,0 km/h (0 Bft)
14.10.2013 15:45 12,3 C 66 % 1020,1 hPa 0,0 l/m 0,0 km/h (0 Bft) S 180 6,1 C 14,8 C 0,0 km/h (0 Bft)
14.10.2013 15:50 12,6 C 62 % 1020,2 hPa 0,0 l/m 0,0 km/h (0 Bft) S 180 5,5 C 14,8 C 0,0 km/h (0 Bft)
14.10.2013 15:55 12,6 C 63 % 1020,2 hPa 0,0 l/m 0,0 km/h (0 Bft) S 180 5,7 C 14,8 C 0,0 km/h (0 Bft)
14.10.2013 16:00 12,5 C 63 % 1020,2 hPa 0,0 l/m 0,0 km/h (0 Bft) S 180 5,7 C 14,8 C 0,0 km/h (0 Bft)
14.10.2013 16:05 12,4 C 62 % 1020,2 hPa 0,0 l/m 0,0 km/h (0 Bft) S 180 5,3 C 14,8 C 0,0 km/h (0 Bft)
14.10.2013 16:10 12,2 C 63 % 1019,8 hPa 0,0 l/m 0,0 km/h (0 Bft) S 180 5,4 C 14,8 C 0,0 km/h (0 Bft)
14.10.2013 16:15 11,9 C 64 % 1019,8 hPa 0,0 l/m 0,0 km/h (0 Bft) S 180 5,3 C 14,8 C 0,0 km/h (0 Bft)
14.10.2013 16:18 11,8 C 65 % 1019,8 hPa 0,0 l/m 0,0 km/h (0 Bft) S 180 5,4 C 14,8 C 0,0 km/h (0 Bft)
14.10.2013 16:20 11,8 C 65 % 1019,8 hPa 0,0 l/m 0,0 km/h (0 Bft) S 180 5,4 C 14,8 C 0,0 km/h (0 Bft)
14.10.2013 16:25 11,9 C 65 % 1019,8 hPa 0,0 l/m 0,0 km/h (0 Bft) S 180 5,5 C 14,8 C 0,0 km/h (0 Bft)
14.10.2013 16:30 11,9 C 65 % 1019,5 hPa 0,0 l/m 0,0 km/h (0 Bft) S 180 5,5 C 14,8 C 0,0 km/h (0 Bft)
14.10.2013 16:35 11,8 C 65 % 1019,5 hPa 0,0 l/m 0,0 km/h (0 Bft) S 180 5,4 C 14,8 C 0,0 km/h (0 Bft)
14.10.2013 16:40 11,6 C 67 % 1019,5 hPa 0,0 l/m 0,0 km/h (0 Bft) S 180 5,7 C 14,8 C 0,0 km/h (0 Bft)
14.10.2013 16:45 11,5 C 66 % 1019,5 hPa 0,0 l/m 0,0 km/h (0 Bft) S 180 5,4 C 14,8 C 0,0 km/h (0 Bft)
14.10.2013 16:50 11,7 C 66 % 1019,4 hPa 0,0 l/m 0,0 km/h (0 Bft) S 180 5,6 C 14,8 C 0,0 km/h (0 Bft)
14.10.2013 16:55 11,7 C 66 % 1019,4 hPa 0,0 l/m 0,0 km/h (0 Bft) S 180 5,6 C 14,8 C 0,0 km/h (0 Bft)
14.10.2013 17:00 11,4 C 67 % 1019,4 hPa 0,0 l/m 0,0 km/h (0 Bft) S 180 5,5 C 14,8 C 0,0 km/h (0 Bft)
14.10.2013 17:05 11,5 C 67 % 1019,4 hPa 0,0 l/m 0,0 km/h (0 Bft) S 180 5,6 C 14,8 C 0,0 km/h (0 Bft)
14.10.2013 17:10 11,5 C 67 % 1019,6 hPa 0,0 l/m 0,0 km/h (0 Bft) S 180 5,6 C 14,8 C 0,0 km/h (0 Bft)
14.10.2013 17:15 11,4 C 67 % 1019,6 hPa 0,0 l/m 0,0 km/h (0 Bft) S 180 5,5 C 14,8 C 0,0 km/h (0 Bft)
14.10.2013 17:20 11,3 C 68 % 1019,6 hPa 0,0 l/m 0,0 km/h (0 Bft) S 180 5,6 C 14,8 C 0,0 km/h (0 Bft)
14.10.2013 17:25 11,2 C 68 % 1019,6 hPa 0,0 l/m 0,0 km/h (0 Bft) S 180 5,5 C 14,8 C 0,0 km/h (0 Bft)
14.10.2013 17:30 10,9 C 69 % 1019,2 hPa 0,0 l/m 0,0 km/h (0 Bft) S 180 5,4 C 14,8 C 0,0 km/h (0 Bft)
14.10.2013 17:35 10,9 C 70 % 1019,2 hPa 0,0 l/m 0,0 km/h (0 Bft) S 180 5,6 C 14,8 C 0,0 km/h (0 Bft)
14.10.2013 17:40 11,0 C 72 % 1019,2 hPa 0,0 l/m 0,0 km/h (0 Bft) S 180 6,2 C 14,8 C 0,0 km/h (0 Bft)
14.10.2013 17:45 10,9 C 73 % 1019,2 hPa 0,0 l/m 0,0 km/h (0 Bft) S 180 6,3 C 14,8 C 0,0 km/h (0 Bft)
14.10.2013 17:50 10,8 C 75 % 1019,4 hPa 0,0 l/m 0,0 km/h (0 Bft) S 180 6,5 C 14,8 C 0,0 km/h (0 Bft)
14.10.2013 17:55 10,7 C 75 % 1019,4 hPa 0,0 l/m 0,0 km/h (0 Bft) S 180 6,5 C 14,8 C 0,0 km/h (0 Bft)
14.10.2013 18:00 10,6 C 76 % 1019,4 hPa 0,0 l/m 0,0 km/h (0 Bft) S 180 6,5 C 14,8 C 0,0 km/h (0 Bft)
14.10.2013 18:05 10,6 C 76 % 1019,4 hPa 0,0 l/m 0,0 km/h (0 Bft) S 180 6,5 C 14,8 C 0,0 km/h (0 Bft)
14.10.2013 18:10 10,5 C 77 % 1019,1 hPa 0,0 l/m 0,0 km/h (0 Bft) S 180 6,6 C 14,8 C 0,0 km/h (0 Bft)
14.10.2013 18:15 10,4 C 77 % 1019,1 hPa 0,0 l/m 0,0 km/h (0 Bft) S 180 6,5 C 14,8 C 0,0 km/h (0 Bft)
14.10.2013 18:20 10,3 C 78 % 1019,1 hPa 0,0 l/m 0,0 km/h (0 Bft) S 180 6,6 C 14,8 C 0,0 km/h (0 Bft)
14.10.2013 18:25 10,1 C 78 % 1019,1 hPa 0,0 l/m 0,0 km/h (0 Bft) S 180 6,4 C 14,8 C 0,0 km/h (0 Bft)
14.10.2013 18:30 9,8 C 79 % 1019,3 hPa 0,0 l/m 0,0 km/h (0 Bft) S 180 6,3 C 14,8 C 0,0 km/h (0 Bft)
14.10.2013 18:35 9,3 C 79 % 1019,3 hPa 0,0 l/m 0,0 km/h (0 Bft) S 180 5,8 C 14,8 C 0,0 km/h (0 Bft)
14.10.2013 18:40 9,1 C 80 % 1019,3 hPa 0,0 l/m 0,0 km/h (0 Bft) S 180 5,8 C 14,8 C 0,0 km/h (0 Bft)
14.10.2013 18:45 9,1 C 80 % 1019,3 hPa 0,0 l/m 0,0 km/h (0 Bft) S 180 5,8 C 14,8 C 0,0 km/h (0 Bft)
14.10.2013 18:50 8,9 C 81 % 1019,1 hPa 0,0 l/m 0,0 km/h (0 Bft) S 180 5,8 C 14,8 C 0,0 km/h (0 Bft)
14.10.2013 18:55 8,7 C 81 % 1019,1 hPa 0,0 l/m 0,0 km/h (0 Bft) S 180 5,6 C 14,8 C 0,0 km/h (0 Bft)
14.10.2013 19:00 8,0 C 82 % 1019,1 hPa 0,0 l/m 0,0 km/h (0 Bft) S 180 5,1 C 14,8 C 0,0 km/h (0 Bft)
14.10.2013 19:05 8,0 C 83 % 1019,1 hPa 0,0 l/m 0,0 km/h (0 Bft) S 180 5,3 C 14,8 C 0,0 km/h (0 Bft)
14.10.2013 19:10 7,9 C 83 % 1019,2 hPa 0,0 l/m 0,0 km/h (0 Bft) S 180 5,2 C 14,8 C 0,0 km/h (0 Bft)
14.10.2013 19:15 7,9 C 84 % 1019,2 hPa 0,0 l/m 0,0 km/h (0 Bft) S 180 5,4 C 14,8 C 0,0 km/h (0 Bft)
14.10.2013 19:20 8,0 C 85 % 1019,2 hPa 0,0 l/m 0,0 km/h (0 Bft) S 180 5,6 C 14,8 C 0,0 km/h (0 Bft)
14.10.2013 19:25 7,6 C 85 % 1019,2 hPa 0,0 l/m 0,0 km/h (0 Bft) S 180 5,2 C 14,8 C 0,0 km/h (0 Bft)
14.10.2013 19:30 7,5 C 86 % 1019,2 hPa 0,0 l/m 0,0 km/h (0 Bft) S 180 5,3 C 14,8 C 0,0 km/h (0 Bft)
14.10.2013 19:35 7,4 C 86 % 1019,2 hPa 0,0 l/m 0,0 km/h (0 Bft) S 180 5,2 C 14,8 C 0,0 km/h (0 Bft)
14.10.2013 19:40 7,2 C 87 % 1019,2 hPa 0,0 l/m 0,0 km/h (0 Bft) S 180 5,2 C 14,8 C 0,0 km/h (0 Bft)
14.10.2013 19:45 7,1 C 87 % 1019,2 hPa 0,0 l/m 0,0 km/h (0 Bft) S 180 5,1 C 14,8 C 0,0 km/h (0 Bft)
14.10.2013 19:50 6,9 C 88 % 1019,2 hPa 0,0 l/m 0,0 km/h (0 Bft) S 180 5,1 C 14,8 C 0,0 km/h (0 Bft)
14.10.2013 19:55 6,8 C 88 % 1019,2 hPa 0,0 l/m 0,0 km/h (0 Bft) S 180 5,0 C 14,8 C 0,0 km/h (0 Bft)
14.10.2013 20:00 6,7 C 88 % 1019,2 hPa 0,0 l/m 0,0 km/h (0 Bft) S 180 4,9 C 14,8 C 0,0 km/h (0 Bft)
14.10.2013 20:05 6,5 C 88 % 1019,2 hPa 0,0 l/m 0,0 km/h (0 Bft) S 180 4,7 C 14,8 C 0,0 km/h (0 Bft)
14.10.2013 20:10 6,4 C 89 % 1019,2 hPa 0,0 l/m 0,0 km/h (0 Bft) S 180 4,7 C 14,8 C 0,0 km/h (0 Bft)
14.10.2013 20:15 6,4 C 89 % 1019,2 hPa 0,0 l/m 0,0 km/h (0 Bft) S 180 4,7 C 14,8 C 0,0 km/h (0 Bft)
14.10.2013 20:20 6,4 C 89 % 1019,2 hPa 0,0 l/m 0,0 km/h (0 Bft) S 180 4,7 C 14,8 C 0,0 km/h (0 Bft)
14.10.2013 20:25 6,4 C 89 % 1019,2 hPa 0,0 l/m 0,0 km/h (0 Bft) S 180 4,7 C 14,8 C 0,0 km/h (0 Bft)
14.10.2013 20:30 6,2 C 89 % 1019,1 hPa 0,0 l/m 0,0 km/h (0 Bft) S 180 4,5 C 14,8 C 0,0 km/h (0 Bft)
14.10.2013 20:35 6,0 C 89 % 1019,1 hPa 0,0 l/m 0,0 km/h (0 Bft) S 180 4,3 C 14,8 C 0,0 km/h (0 Bft)
14.10.2013 20:40 5,8 C 89 % 1019,1 hPa 0,0 l/m 0,0 km/h (0 Bft) S 180 4,1 C 14,8 C 0,0 km/h (0 Bft)
14.10.2013 20:45 5,6 C 89 % 1019,1 hPa 0,0 l/m 0,0 km/h (0 Bft) S 180 3,9 C 14,8 C 0,0 km/h (0 Bft)
14.10.2013 20:50 5,7 C 89 % 1019,0 hPa 0,0 l/m 0,0 km/h (0 Bft) S 180 4,0 C 14,8 C 0,0 km/h (0 Bft)
14.10.2013 20:55 5,7 C 89 % 1019,0 hPa 0,0 l/m 0,0 km/h (0 Bft) S 180 4,0 C 14,8 C 0,0 km/h (0 Bft)
14.10.2013 21:00 5,6 C 90 % 1019,0 hPa 0,0 l/m 0,0 km/h (0 Bft) S 180 4,1 C 14,8 C 0,0 km/h (0 Bft)
14.10.2013 21:05 5,4 C 90 % 1019,0 hPa 0,0 l/m 0,0 km/h (0 Bft) S 180 3,9 C 14,8 C 0,0 km/h (0 Bft)
14.10.2013 21:10 5,5 C 90 % 1019,0 hPa 0,0 l/m 0,0 km/h (0 Bft) S 180 4,0 C 14,8 C 0,0 km/h (0 Bft)
14.10.2013 21:15 5,4 C 90 % 1019,0 hPa 0,0 l/m 0,0 km/h (0 Bft) S 180 3,9 C 14,8 C 0,0 km/h (0 Bft)
14.10.2013 21:20 5,0 C 90 % 1019,0 hPa 0,0 l/m 0,0 km/h (0 Bft) S 180 3,5 C 14,8 C 0,0 km/h (0 Bft)
14.10.2013 21:25 4,9 C 90 % 1019,0 hPa 0,0 l/m 0,0 km/h (0 Bft) S 180 3,4 C 14,8 C 0,0 km/h (0 Bft)
14.10.2013 21:30 4,6 C 90 % 1019,0 hPa 0,0 l/m 0,0 km/h (0 Bft) S 180 3,1 C 14,8 C 0,0 km/h (0 Bft)
14.10.2013 21:35 4,9 C 91 % 1019,0 hPa 0,0 l/m 0,0 km/h (0 Bft) S 180 3,6 C 14,8 C 0,0 km/h (0 Bft)
14.10.2013 21:40 4,7 C 91 % 1019,0 hPa 0,0 l/m 0,0 km/h (0 Bft) S 180 3,4 C 14,8 C 0,0 km/h (0 Bft)
14.10.2013 21:45 4,6 C 91 % 1019,0 hPa 0,0 l/m 0,0 km/h (0 Bft) S 180 3,3 C 14,8 C 0,0 km/h (0 Bft)
14.10.2013 21:50 4,5 C 91 % 1018,9 hPa 0,0 l/m 0,0 km/h (0 Bft) S 180 3,2 C 14,8 C 0,0 km/h (0 Bft)
14.10.2013 21:55 5,0 C 91 % 1018,9 hPa 0,0 l/m 0,5 km/h (0 Bft) O-NO 67 3,7 C 4,5 C 3,5 km/h (1 Bft)
14.10.2013 22:00 5,1 C 92 % 1018,9 hPa 0,0 l/m 1,9 km/h (1 Bft) O 90 3,9 C 4,9 C 2,7 km/h (1 Bft)
14.10.2013 22:05 5,1 C 92 % 1018,9 hPa 0,0 l/m 2,9 km/h (1 Bft) O 90 3,9 C 5,1 C 3,9 km/h (1 Bft)
14.10.2013 22:10 5,2 C 92 % 1019,1 hPa 0,0 l/m 2,3 km/h (1 Bft) NO 45 4,0 C 5,2 C 0,0 km/h (0 Bft)
14.10.2013 22:15 5,4 C 92 % 1019,1 hPa 0,0 l/m 1,8 km/h (1 Bft) O-NO 67 4,2 C 5,2 C 2,6 km/h (1 Bft)
14.10.2013 22:18 5,6 C 92 % 1019,1 hPa 0,0 l/m 1,4 km/h (1 Bft) O-NO 67 4,4 C 5,5 C 0,0 km/h (0 Bft)
14.10.2013 22:20 5,6 C 92 % 1019,1 hPa 0,0 l/m 1,4 km/h (1 Bft) O-NO 67 4,4 C 5,5 C 0,0 km/h (0 Bft)
14.10.2013 22:25 5,5 C 92 % 1019,1 hPa 0,0 l/m 0,8 km/h (0 Bft) SO 135 4,3 C 5,5 C 0,0 km/h (0 Bft)
14.10.2013 22:30 5,4 C 92 % 1019,1 hPa 0,0 l/m 0,0 km/h (0 Bft) NO 45 4,2 C 5,5 C 0,0 km/h (0 Bft)
14.10.2013 22:35 5,5 C 92 % 1019,1 hPa 0,0 l/m 0,0 km/h (0 Bft) NO 45 4,3 C 5,5 C 0,0 km/h (0 Bft)
14.10.2013 22:40 5,5 C 92 % 1019,1 hPa 0,0 l/m 0,0 km/h (0 Bft) NO 45 4,3 C 5,7 C 0,0 km/h (0 Bft)
14.10.2013 22:45 5,6 C 92 % 1019,1 hPa 0,0 l/m 0,0 km/h (0 Bft) NO 45 4,4 C 5,7 C 0,0 km/h (0 Bft)
14.10.2013 22:50 5,7 C 92 % 1019,1 hPa 0,0 l/m 0,2 km/h (0 Bft) NO 45 4,5 C 5,8 C 0,0 km/h (0 Bft)
14.10.2013 22:55 5,7 C 93 % 1019,1 hPa 0,0 l/m 0,2 km/h (0 Bft) NO 45 4,7 C 5,8 C 0,0 km/h (0 Bft)
14.10.2013 23:00 5,8 C 93 % 1019,1 hPa 0,0 l/m 0,0 km/h (0 Bft) S-SO 157 4,8 C 5,9 C 0,0 km/h (0 Bft)
14.10.2013 23:05 5,9 C 93 % 1019,1 hPa 0,0 l/m 0,0 km/h (0 Bft) S-SO 157 4,9 C 5,8 C 0,0 km/h (0 Bft)
14.10.2013 23:10 5,8 C 93 % 1019,0 hPa 0,0 l/m 0,0 km/h (0 Bft) SO 135 4,8 C 5,9 C 0,0 km/h (0 Bft)
14.10.2013 23:15 5,8 C 93 % 1019,0 hPa 0,0 l/m 0,0 km/h (0 Bft) SO 135 4,8 C 5,9 C 0,0 km/h (0 Bft)
14.10.2013 23:20 5,8 C 93 % 1019,0 hPa 0,0 l/m 0,0 km/h (0 Bft) SO 135 4,8 C 5,9 C 0,0 km/h (0 Bft)
14.10.2013 23:25 5,7 C 93 % 1019,0 hPa 0,0 l/m 0,2 km/h (0 Bft) O-NO 67 4,7 C 5,8 C 1,8 km/h (1 Bft)
14.10.2013 23:30 5,6 C 93 % 1019,0 hPa 0,0 l/m 0,2 km/h (0 Bft) N-NO 22 4,6 C 5,8 C 0,0 km/h (0 Bft)
14.10.2013 23:35 5,4 C 92 % 1019,0 hPa 0,0 l/m 0,2 km/h (0 Bft) N-NO 22 4,2 C 5,8 C 0,0 km/h (0 Bft)
14.10.2013 23:40 5,3 C 92 % 1019,0 hPa 0,0 l/m 0,2 km/h (0 Bft) N-NO 22 4,1 C 5,8 C 0,0 km/h (0 Bft)
14.10.2013 23:45 5,2 C 92 % 1019,0 hPa 0,0 l/m 0,0 km/h (0 Bft) N-NO 22 4,0 C 5,8 C 0,0 km/h (0 Bft)
14.10.2013 23:50 5,2 C 92 % 1018,9 hPa 0,0 l/m 0,0 km/h (0 Bft) N-NO 22 4,0 C 5,8 C 0,0 km/h (0 Bft)
14.10.2013 23:55 5,4 C 92 % 1018,9 hPa 0,0 l/m 0,0 km/h (0 Bft) N-NO 22 4,2 C 5,8 C 0,0 km/h (0 Bft)
_ Min-Zeit 08:05 14:10 23:55 - 23:55 - - 08:05 08:00 23:55
Minimum _ 0,5 C 56 % 1018,9 hPa - 0,0 km/h (0 Bft) - - -0,1 C 0,1 C 0,0 km/h (0 Bft)
_ Max-Zeit 14:00 09:25 00:25 23:55 13:20 - - 12:40 12:30 13:10
Maximum _ 14,5 C 96 % 1021,8 hPa 0,0 l/m 5,3 km/h
S (1 Bft)
- - 9,0 C 14,9 C 8,2 km/h
S (2 Bft)
Durchschnitt _ 6,3 C 86 % 1020,3 hPa #0,0 l/m 0,3 km/h (0 Bft) S - 4,0 C 7,3 C 0,4 km/h (0 Bft)